This demonstration page uses our WeatherBlox Daily Observations layout. Learn more.

Left ArrowRight Arrow

Hourly Observations for December 14, 2019

Temp ( °F °C ) Dew Point ( °F °C ) Humidity (%) Winds ( mph kmh ) Pressure ( in mb ) Visibility ( mi km ) Precip ( " mm )
12:41 am 00:41 Cloudy 32 0 27 -2.8 82 82 NNW 13 20 29.96 1015 10 16 0.00 0.00
12:52 am 00:52 Cloudy 31 -0.6 26 -3.3 82 82 N 22 35 29.94 1014 10 16 0.00 0.00
1:52 am 01:52 Cloudy 29 -1.7 24 -4.4 82 82 NNW 18 30 29.95 1014 8 13 0.00 0.00
2:52 am 02:52 Cloudy 25 -3.9 19 -7.2 78 78 N 21 33 29.97 1015 10 16 0.00 0.00
3:52 am 03:52 Cloudy 23 -5 18 -7.8 81 81 NNW 16 26 29.98 1015 10 16 0.00 0.00
4:52 am 04:52 Cloudy 20 -6.7 14 -10 78 78 NNW 20 31 29.99 1016 10 16 0.00 0.00
5:52 am 05:52 Cloudy 20 -6.7 14 -10 78 78 NNW 17 28 30.01 1016 10 16 0.00 0.00
6:36 am 06:36 Cloudy 19 -7.2 14 -10 81 81 NNW 17 28 30.07 1018 10 16 0.00 0.00
6:52 am 06:52 Cloudy 19 -7.2 14 -10 81 81 NNW 20 31 30.03 1017 10 16 0.00 0.00
7:28 am 07:28 Cloudy with Light Snow 18 -7.8 13 -10.6 81 81 N 18 30 30.09 1019 4 6 0.00 0.00
7:52 am 07:52 Cloudy with Light Snow 18 -7.8 13 -10.6 81 81 NNW 16 26 30.05 1018 3 5 0.00 0.00
8:52 am 08:52 Cloudy with Light Snow 18 -7.8 12 -11.1 77 77 NNW 17 28 30.05 1018 4 6 0.00 0.00
9:52 am 09:52 Cloudy with Light Snow 19 -7.2 13 -10.6 77 77 N 16 26 30.05 1018 5 8 0.00 0.00
10:52 am 10:52 Cloudy with Light Snow 20 -6.7 14 -10 78 78 NNW 14 22 30.06 1018 3 5 0.00 0.00
11:52 am 11:52 Cloudy 20 -6.7 13 -10.6 74 74 NNW 13 20 30.05 1018 7 11 0.00 0.00
12:52 pm 12:52 Mostly Cloudy 20 -6.7 12 -11.1 71 71 NNW 10 17 30.04 1017 10 16 0.00 0.00
1:52 pm 13:52 Mostly Cloudy 22 -5.6 12 -11.1 66 66 NNW 9 15 30.04 1017 10 16 0.00 0.00
2:52 pm 14:52 Partly Cloudy 22 -5.6 12 -11.1 66 66 N 9 15 30.03 1017 10 16 0.00 0.00
3:52 pm 15:52 Partly Cloudy 22 -5.6 11 -11.7 63 63 N 10 17 30.04 1017 10 16 0.00 0.00
4:52 pm 16:52 Partly Cloudy 20 -6.7 11 -11.7 68 68 NNW 8 13 30.05 1018 10 16 0.00 0.00
5:52 pm 17:52 Partly Cloudy 19 -7.2 12 -11.1 74 74 N 10 17 30.06 1018 10 16 0.00 0.00
6:52 pm 18:52 Partly Cloudy 19 -7.2 11 -11.7 71 71 N 12 19 30.07 1018 10 16 0.00 0.00
7:52 pm 19:52 Mostly Cloudy 17 -8.3 11 -11.7 77 77 NNE 7 11 30.07 1018 10 16 0.00 0.00
8:52 pm 20:52 Cloudy 17 -8.3 10 -12.2 74 74 N 9 15 30.09 1019 10 16 0.00 0.00
9:52 pm 21:52 Cloudy 17 -8.3 9 -12.8 70 70 N 6 9 30.10 1019 10 16 0.00 0.00
10:52 pm 22:52 Cloudy 16 -8.9 9 -12.8 74 74 N 7 11 30.10 1019 10 16 0.00 0.00
11:52 pm 23:52 Cloudy 16 -8.9 9 -12.8 74 74 N 8 13 30.11 1020 10 16 0.00 0.00

Powered by AerisWeather